Skip Page Navigation
NASA JPL Caltech
NASA Logo - Jet Propulsion Laboratory + View the NASA Portal
+ Center for Near-Earth Object Studies
JPL Home Earth Solar System Stars & Galaxies Technology
JPL Solar System Dynamics
BODIES ORBITS EPHEMERIDES TOOLS PHYSICAL DATA DISCOVERY FAQ SITE MAP
IMPORTANT: The SSD Announcement email list is now available. Major changes are coming in the near future, including possible hostname and/or URL changes. To be notified of such changes, subscribe to this email list.

Please visit this page for more details.


JPL Small-Body Database Browser
Search: [ help ]  
71505 (2000 CD30)
Classification: Main-belt Asteroid          SPK-ID: 2071505
Ephemeris | Orbit Diagram | Orbital Elements | Mission Design | Physical Parameters | Discovery Circumstances | Close-Approach Data ]

[ show orbit diagram ]
Orbital Elements at Epoch 2458600.5 (2019-Apr-27.0) TDB
Reference: JPL 24 (heliocentric ecliptic J2000)
 Element Value Uncertainty (1-sigma)   Units 
e .1118102313717844 4.9175e-08  
a 3.117083930201165 2.4949e-08 au
q 2.768562054760102 1.5392e-07 au
i 5.500954670396293 5.2482e-06 deg
node 161.2345945209724 4.9253e-05 deg
peri 47.723746130626 5.297e-05 deg
M 124.9926341367837 1.9063e-05 deg
tp 2457902.584102524850
(2017-May-29.08410252)
0.00010566 TDB
period 2010.1162346583
5.50
2.4133e-05
6.607e-08
d
yr
n .1790941209234085 2.1501e-09 deg/d
Q 3.465605805642228 2.7738e-08 au
  Orbit Determination Parameters
   # obs. used (total)      977  
   data-arc span      6794 days (18.60 yr)  
   first obs. used      2000-02-02  
   last obs. used      2018-09-09  
   planetary ephem.      DE431  
   SB-pert. ephem.      SB431-N16  
   condition code      0  
   norm. resid. RMS      .55455  
   source      ORB  
   producer      Otto Matic  
   solution date      2018-Oct-04 02:15:46  

Additional Information
 Earth MOID = 1.76803 au 
 Jupiter MOID = 1.50524 au 
 T_jup = 3.200 
[ show covariance matrix ]

Ephemeris | Orbit Diagram | Orbital Elements | Mission Design | Physical Parameters | Discovery Circumstances | Close-Approach Data ]

Physical Parameter Table
Parameter Symbol Value Units Sigma Reference Notes
absolute magnitude H 13.9   n/a MPO359243  
diameter diameter 8.848 km 0.392 urn:nasa:pds:neowise_diameters_albedos::2.0[mainbelt] (http://adsabs.harvard.edu/abs/2011ApJ...741...68M)  
geometric albedo albedo 0.082   0.015 urn:nasa:pds:neowise_diameters_albedos::2.0[mainbelt] (http://adsabs.harvard.edu/abs/2011ApJ...741...68M)  

71505 (2000 CD30)          Discovered 2000-Feb-02 by LINEAR at Socorro
Reference: 20031109/Numbers.arcLast Updated: 2004-04-19

[ show close-approach data ]
Alternate Designations
 2000 CD30 = 2001 KG11 
Ephemeris | Orbit Diagram | Orbital Elements | Mission Design | Physical Parameters | Discovery Circumstances | Close-Approach Data ]
ABOUT SSD CREDITS/AWARDS PRIVACY/COPYRIGHT GLOSSARY LINKS
FirstGov 2019-Oct-21 21:34 UT
(server date/time)  
NASA Home Page
Site Manager:   Ryan S. Park
Webmaster  Alan B. Chamberlin